Showing default

KUIPER-00186, 67140

Orbit data source: Space-Track

KUIPER-00186, 67140 is a payload satellite owned by Kuiper Systems (US) in LEO that was launched on Mon, 15 Dec 2025 UTC via an ATLAS V 551 launch vehicle from the Air Force Eastern Test Range (AFETR). Payload-class satellites include a variety of spacecraft equipped with specific instruments for various scientific and technological missions. These include communications satellites like Starlink; space stations such as the ISS; scientific satellites like the Hubble; Earth observation satellites from companies like Planet Labs, Umbra, and HawkEye 360; GPS; miniature CubeSats for education and research; and military/defense satellites.

Loading next visibility...
Identifier
67140, 2025-301H
Orbit
LEO
Country
Flag of USUS
Related business
Manufacturer
Kuiper Systems
Mission
Operational Commercial Communications
Bus & Motor
KUIPER, Unknown motor
Mass
~490 kg wet, ~490 kg dry
Launch date (UTC)
2025-12-15 (6 months ago)
Launch vehicle
ATLAS V 551
Launch site
Air Force Eastern Test Range (AFETR)
Object type
Payload
Rocket body
Debris
Shape & HBR
Box + 2 Pan, 3.4 m
Radar Cross Section
2.326 m², Large (>1 m²)

Expand to show TLE details & history
Last TLE update: 10 hours ago

TLE from 10 hours ago
0 KUIPER-00186
1 67140U 25301H   26171.42594259  .00000769  00000-0  12986-3 0  9997
2 67140  51.9029 343.8320 0000604 103.8232 256.2797 14.79930412 28770
Epoch: 2026-06-20T10:13Z
TLE epoch observation values (Epoch: 2026-06-20T10:13:21.439Z)
Latitude
-0.00008°
Longitude
-78.14813°
Altitude
630.391 km
Speed
7.544 km/s
True Right ascension
22h 55m 19s
True Declination
0° 00' 00"
Sunlit
Object was in daylight at epoch
Visualization orbit readout
Latitude
Unknown
Longitude
Unknown
Altitude
Unknown
Speed
Unknown
Apparent Right ascension
Unknown
Apparent Declination
Unknown
Sunlit
N/A
Visualization observer readout
Local Sidereal Time
07:13:09
Azimuth
Unknown
Elevation
Unknown
Doppler factor
Unknown
Orbital elements
Apogee altitude
630.418 km
Perigee altitude
629.571 km
Semi-major axis
7,008.131 km
Eccentricity
0.00006
Inclination
51.9029°
RAAN
343.832°
Arg. of periapsis
103.8232°
True anomaly
256.27298°
Mean anomaly
256.2797°
Eccentric anomaly
256.27634°
Mean motion
3.69947 °/min
Orbital period
97.31 mins
BSTAR
0.00012986
Loading maneuver chart data...
Computing Atmospheric mass density...
Loading historical data...
Loading historical data...
Loading historical data...
Loading historical data...
Loading historical data...
Loading historical data...
Loading historical data...

Documentation

Showing up to 5 results
|